Year,Month,Day,Hour,Minute,Value (Times are PST for temperature in C)
2020,04,13,00,00,4.30
2020,04,13,00,01,4.30
2020,04,13,00,02,4.30
2020,04,13,00,03,4.30
2020,04,13,00,04,4.30
2020,04,13,00,05,4.30
2020,04,13,00,06,4.30
2020,04,13,00,07,4.30
2020,04,13,00,08,4.30
2020,04,13,00,09,4.20
2020,04,13,00,10,4.20
2020,04,13,00,11,4.20
2020,04,13,00,12,4.20
2020,04,13,00,13,4.20
2020,04,13,00,14,4.20
2020,04,13,00,15,4.20
2020,04,13,00,16,4.20
2020,04,13,00,17,4.20
2020,04,13,00,18,4.20
2020,04,13,00,19,4.20
2020,04,13,00,20,4.10
2020,04,13,00,21,4.10
2020,04,13,00,22,4.10
2020,04,13,00,23,4.10
2020,04,13,00,24,4.10
2020,04,13,00,25,4.10
2020,04,13,00,26,4.10
2020,04,13,00,27,4.10
2020,04,13,00,28,4.10
2020,04,13,00,29,4.00
2020,04,13,00,30,4.00
2020,04,13,00,31,4.00
2020,04,13,00,32,4.00
2020,04,13,00,33,3.90
2020,04,13,00,34,3.90
2020,04,13,00,35,3.90
2020,04,13,00,36,3.90
2020,04,13,00,37,3.90
2020,04,13,00,38,3.90
2020,04,13,00,39,3.90
2020,04,13,00,40,3.90
2020,04,13,00,41,3.90
2020,04,13,00,42,3.90
2020,04,13,00,43,3.80
2020,04,13,00,44,3.80
2020,04,13,00,45,3.80
2020,04,13,00,46,3.80
2020,04,13,00,47,3.80
2020,04,13,00,48,3.80
2020,04,13,00,49,3.80
2020,04,13,00,50,3.80
2020,04,13,00,51,3.80
2020,04,13,00,52,3.80
2020,04,13,00,53,3.80
2020,04,13,00,54,3.70
2020,04,13,00,55,3.70
2020,04,13,00,56,3.70
2020,04,13,00,57,3.70
2020,04,13,00,58,3.60
2020,04,13,00,59,3.60
2020,04,13,01,00,3.60
2020,04,13,01,01,3.50
2020,04,13,01,02,3.50
2020,04,13,01,03,3.50
2020,04,13,01,04,3.40
2020,04,13,01,05,3.40
2020,04,13,01,06,3.40
2020,04,13,01,07,3.30
2020,04,13,01,08,3.30
2020,04,13,01,09,3.20
2020,04,13,01,10,3.20
2020,04,13,01,11,3.20
2020,04,13,01,12,3.10
2020,04,13,01,13,3.10
2020,04,13,01,14,3.10
2020,04,13,01,15,3.00
2020,04,13,01,16,3.00
2020,04,13,01,17,3.00
2020,04,13,01,18,2.90
2020,04,13,01,19,2.90
2020,04,13,01,20,2.90
2020,04,13,01,21,2.90
2020,04,13,01,22,2.80
2020,04,13,01,23,2.80
2020,04,13,01,24,2.80
2020,04,13,01,25,2.80
2020,04,13,01,26,2.80
2020,04,13,01,27,2.70
2020,04,13,01,28,2.70
2020,04,13,01,29,2.60
2020,04,13,01,30,2.60
2020,04,13,01,31,2.50
2020,04,13,01,32,2.50
2020,04,13,01,33,2.50
2020,04,13,01,34,2.40
2020,04,13,01,35,2.40
2020,04,13,01,36,2.40
2020,04,13,01,37,2.40
2020,04,13,01,38,2.40
2020,04,13,01,39,2.40
2020,04,13,01,40,2.30
2020,04,13,01,41,2.30
2020,04,13,01,42,2.30
2020,04,13,01,43,2.30
2020,04,13,01,44,2.30
2020,04,13,01,45,2.30
2020,04,13,01,46,2.20
2020,04,13,01,47,2.20
2020,04,13,01,48,2.20
2020,04,13,01,49,2.20
2020,04,13,01,50,2.20
2020,04,13,01,51,2.10
2020,04,13,01,52,2.10
2020,04,13,01,53,2.10
2020,04,13,01,54,2.10
2020,04,13,01,55,2.10
2020,04,13,01,56,2.00
2020,04,13,01,57,1.90
2020,04,13,01,58,1.90
2020,04,13,01,59,1.90
2020,04,13,02,00,1.90
2020,04,13,02,01,1.80
2020,04,13,02,02,1.80
2020,04,13,02,03,1.80
2020,04,13,02,04,1.70
2020,04,13,02,05,1.70
2020,04,13,02,06,1.70
2020,04,13,02,07,1.70
2020,04,13,02,08,1.60
2020,04,13,02,09,1.60
2020,04,13,02,10,1.60
2020,04,13,02,11,1.60
2020,04,13,02,12,1.60
2020,04,13,02,13,1.50
2020,04,13,02,14,1.50
2020,04,13,02,15,1.50
2020,04,13,02,16,1.50
2020,04,13,02,17,1.40
2020,04,13,02,18,1.40
2020,04,13,02,19,1.40
2020,04,13,02,20,1.40
2020,04,13,02,21,1.40
2020,04,13,02,22,1.40
2020,04,13,02,23,1.40
2020,04,13,02,24,1.40
2020,04,13,02,25,1.40
2020,04,13,02,26,1.40
2020,04,13,02,27,1.40
2020,04,13,02,28,1.40
2020,04,13,02,29,1.40
2020,04,13,02,30,1.40
2020,04,13,02,31,1.40
2020,04,13,02,32,1.40
2020,04,13,02,33,1.40
2020,04,13,02,34,1.40
2020,04,13,02,35,1.40
2020,04,13,02,36,1.40
2020,04,13,02,37,1.40
2020,04,13,02,38,1.40
2020,04,13,02,39,1.40
2020,04,13,02,40,1.40
2020,04,13,02,41,1.40
2020,04,13,02,42,1.40
2020,04,13,02,43,1.40
2020,04,13,02,44,1.40
2020,04,13,02,45,1.40
2020,04,13,02,46,1.40
2020,04,13,02,47,1.30
2020,04,13,02,48,1.30
2020,04,13,02,49,1.30
2020,04,13,02,50,1.30
2020,04,13,02,51,1.30
2020,04,13,02,52,1.30
2020,04,13,02,53,1.30
2020,04,13,02,54,1.30
2020,04,13,02,55,1.30
2020,04,13,02,56,1.20
2020,04,13,02,57,1.20
2020,04,13,02,58,1.20
2020,04,13,02,59,1.20
2020,04,13,03,00,1.20
2020,04,13,03,01,1.20
2020,04,13,03,02,1.10
2020,04,13,03,03,1.10
2020,04,13,03,04,1.10
2020,04,13,03,05,1.10
2020,04,13,03,06,1.10
2020,04,13,03,07,1.10
2020,04,13,03,08,1.10
2020,04,13,03,09,1.10
2020,04,13,03,10,1.10
2020,04,13,03,11,1.10
2020,04,13,03,12,1.10
2020,04,13,03,13,1.10
2020,04,13,03,14,1.00
2020,04,13,03,15,1.00
2020,04,13,03,16,1.00
2020,04,13,03,17,1.00
2020,04,13,03,18,1.00
2020,04,13,03,19,1.00
2020,04,13,03,20,1.00
2020,04,13,03,21,1.00
2020,04,13,03,22,1.00
2020,04,13,03,23,1.00
2020,04,13,03,24,1.00
2020,04,13,03,25,1.00
2020,04,13,03,26,1.00
2020,04,13,03,27,1.00
2020,04,13,03,28,0.90
2020,04,13,03,29,0.90
2020,04,13,03,30,0.90
2020,04,13,03,31,0.90
2020,04,13,03,32,0.90
2020,04,13,03,33,0.90
2020,04,13,03,34,0.80
2020,04,13,03,35,0.80
2020,04,13,03,36,0.80
2020,04,13,03,37,0.80
2020,04,13,03,38,0.80
2020,04,13,03,39,0.80
2020,04,13,03,40,0.70
2020,04,13,03,41,0.70
2020,04,13,03,42,0.70
2020,04,13,03,43,0.70
2020,04,13,03,44,0.70
2020,04,13,03,45,0.70
2020,04,13,03,46,0.70
2020,04,13,03,47,0.60
2020,04,13,03,48,0.60
2020,04,13,03,49,0.60
2020,04,13,03,50,0.60
2020,04,13,03,51,0.60
2020,04,13,03,52,0.60
2020,04,13,03,53,0.60
2020,04,13,03,54,0.60
2020,04,13,03,55,0.60
2020,04,13,03,56,0.60
2020,04,13,03,57,0.60
2020,04,13,03,58,0.60
2020,04,13,03,59,0.60
2020,04,13,04,00,0.60
2020,04,13,04,01,0.60
2020,04,13,04,02,0.50
2020,04,13,04,03,0.60
2020,04,13,04,04,0.50
2020,04,13,04,05,0.50
2020,04,13,04,06,0.50
2020,04,13,04,07,0.50
2020,04,13,04,08,0.50
2020,04,13,04,09,0.50
2020,04,13,04,10,0.40
2020,04,13,04,11,0.40
2020,04,13,04,12,0.40
2020,04,13,04,13,0.40
2020,04,13,04,14,0.40
2020,04,13,04,15,0.40
2020,04,13,04,16,0.40
2020,04,13,04,17,0.30
2020,04,13,04,18,0.30
2020,04,13,04,19,0.30
2020,04,13,04,20,0.30
2020,04,13,04,21,0.30
2020,04,13,04,22,0.30
2020,04,13,04,23,0.30
2020,04,13,04,24,0.30
2020,04,13,04,25,0.20
2020,04,13,04,26,0.20
2020,04,13,04,27,0.20
2020,04,13,04,28,0.20
2020,04,13,04,29,0.20
2020,04,13,04,30,0.20
2020,04,13,04,31,0.20
2020,04,13,04,32,0.20
2020,04,13,04,33,0.20
2020,04,13,04,34,0.20
2020,04,13,04,35,0.20
2020,04,13,04,36,0.20
2020,04,13,04,37,0.10
2020,04,13,04,38,0.10
2020,04,13,04,39,0.10
2020,04,13,04,40,0.10
2020,04,13,04,41,0.10
2020,04,13,04,42,0.10
2020,04,13,04,43,0.10
2020,04,13,04,44,0.10
2020,04,13,04,45,0.10
2020,04,13,04,46,0.10
2020,04,13,04,47,0.10
2020,04,13,04,48,0.20
2020,04,13,04,49,0.20
2020,04,13,04,50,0.30
2020,04,13,04,51,0.40
2020,04,13,04,52,0.40
2020,04,13,04,53,0.40
2020,04,13,04,54,0.40
2020,04,13,04,55,0.40
2020,04,13,04,56,0.40
2020,04,13,04,57,1.00
2020,04,13,04,58,1.20
2020,04,13,04,59,1.30
2020,04,13,05,00,1.40
2020,04,13,05,01,1.50
2020,04,13,05,02,1.60
2020,04,13,05,03,1.80
2020,04,13,05,04,1.90
2020,04,13,05,05,2.00
2020,04,13,05,06,2.10
2020,04,13,05,07,2.20
2020,04,13,05,08,2.30
2020,04,13,05,09,2.30
2020,04,13,05,10,2.40
2020,04,13,05,11,2.50
2020,04,13,05,12,2.50
2020,04,13,05,13,2.50
2020,04,13,05,14,2.60
2020,04,13,05,15,2.60
2020,04,13,05,16,2.60
2020,04,13,05,17,2.70
2020,04,13,05,18,2.70
2020,04,13,05,19,2.70
2020,04,13,05,20,2.70
2020,04,13,05,21,2.80
2020,04,13,05,22,2.80
2020,04,13,05,23,2.80
2020,04,13,05,24,2.80
2020,04,13,05,25,2.90
2020,04,13,05,26,2.90
2020,04,13,05,27,2.90
2020,04,13,05,28,2.90
2020,04,13,05,29,3.00
2020,04,13,05,30,3.00
2020,04,13,05,31,3.00
2020,04,13,05,32,3.00
2020,04,13,05,33,3.10
2020,04,13,05,34,3.10
2020,04,13,05,35,3.10
2020,04,13,05,36,3.20
2020,04,13,05,37,3.20
2020,04,13,05,38,3.30
2020,04,13,05,39,3.30
2020,04,13,05,40,3.40
2020,04,13,05,41,3.40
2020,04,13,05,42,3.50
2020,04,13,05,43,3.50
2020,04,13,05,44,3.60
2020,04,13,05,45,3.60
2020,04,13,05,46,3.60
2020,04,13,05,47,3.70
2020,04,13,05,48,3.70
2020,04,13,05,49,3.70
2020,04,13,05,50,3.80
2020,04,13,05,51,3.80
2020,04,13,05,52,3.80
2020,04,13,05,53,3.90
2020,04,13,05,54,3.90
2020,04,13,05,55,4.00
2020,04,13,05,56,4.00
2020,04,13,05,57,4.10
2020,04,13,05,58,4.10
2020,04,13,05,59,4.20
2020,04,13,06,00,4.20
2020,04,13,06,01,4.20
2020,04,13,06,02,4.20
2020,04,13,06,03,4.30
2020,04,13,06,04,4.30
2020,04,13,06,05,4.30
2020,04,13,06,06,4.30
2020,04,13,06,07,4.30
2020,04,13,06,08,4.30
2020,04,13,06,09,4.20
2020,04,13,06,10,4.20
2020,04,13,06,11,4.20
2020,04,13,06,12,4.10
2020,04,13,06,13,4.10
2020,04,13,06,14,4.10
2020,04,13,06,15,4.00
2020,04,13,06,16,4.00
2020,04,13,06,17,3.90
2020,04,13,06,18,3.90
2020,04,13,06,19,3.90
2020,04,13,06,20,3.80
2020,04,13,06,21,3.80
2020,04,13,06,22,3.70
2020,04,13,06,23,3.70
2020,04,13,06,24,3.70
2020,04,13,06,25,3.70
2020,04,13,06,26,3.70
2020,04,13,06,27,3.70
2020,04,13,06,28,3.70
2020,04,13,06,29,3.60
2020,04,13,06,30,3.60
2020,04,13,06,31,3.60
2020,04,13,06,32,3.70
2020,04,13,06,33,3.70
2020,04,13,06,34,3.70
2020,04,13,06,35,3.70
2020,04,13,06,36,3.70
2020,04,13,06,37,3.70
2020,04,13,06,38,3.70
2020,04,13,06,39,3.70
2020,04,13,06,40,3.70
2020,04,13,06,41,3.70
2020,04,13,06,42,3.70
2020,04,13,06,43,3.70
2020,04,13,06,44,3.70
2020,04,13,06,45,3.70
2020,04,13,06,46,3.70
2020,04,13,06,47,3.60
2020,04,13,06,48,3.60
2020,04,13,06,49,3.60
2020,04,13,06,50,3.50
2020,04,13,06,51,3.50
2020,04,13,06,52,3.40
2020,04,13,06,53,3.40
2020,04,13,06,54,3.40
2020,04,13,06,55,3.40
2020,04,13,06,56,3.30
2020,04,13,06,57,3.30
2020,04,13,06,58,3.30
2020,04,13,06,59,3.20
2020,04,13,07,00,3.10
2020,04,13,07,01,3.00
2020,04,13,07,02,3.00
2020,04,13,07,03,2.90
2020,04,13,07,04,2.90
2020,04,13,07,05,2.80
2020,04,13,07,06,2.80
2020,04,13,07,07,2.70
2020,04,13,07,08,2.70
2020,04,13,07,09,2.70
2020,04,13,07,10,2.60
2020,04,13,07,11,2.60
2020,04,13,07,12,2.60
2020,04,13,07,13,2.60
2020,04,13,07,14,2.60
2020,04,13,07,15,2.60
2020,04,13,07,16,2.60
2020,04,13,07,17,2.70
2020,04,13,07,18,2.70
2020,04,13,07,19,2.70
2020,04,13,07,20,2.70
2020,04,13,07,21,2.80
2020,04,13,07,22,2.80
2020,04,13,07,23,2.80
2020,04,13,07,24,2.90
2020,04,13,07,25,2.90
2020,04,13,07,26,3.00
2020,04,13,07,27,3.00
2020,04,13,07,28,3.10
2020,04,13,07,29,3.20
2020,04,13,07,30,3.30
2020,04,13,07,31,3.40
2020,04,13,07,32,3.50
2020,04,13,07,33,3.60
2020,04,13,07,34,3.70
2020,04,13,07,35,3.80
2020,04,13,07,36,3.90
2020,04,13,07,37,4.00
2020,04,13,07,38,4.20
2020,04,13,07,39,4.30
2020,04,13,07,40,4.40
2020,04,13,07,41,4.50
2020,04,13,07,42,4.60
2020,04,13,07,43,4.80
2020,04,13,07,44,4.90
2020,04,13,07,45,5.00
2020,04,13,07,46,5.10
2020,04,13,07,47,5.20
2020,04,13,07,48,5.30
2020,04,13,07,49,5.40
2020,04,13,07,50,5.50
2020,04,13,07,51,5.60
2020,04,13,07,52,5.70
2020,04,13,07,53,5.70
2020,04,13,07,54,5.80
2020,04,13,07,55,5.90
2020,04,13,07,56,6.00
2020,04,13,07,57,6.00
2020,04,13,07,58,6.10
2020,04,13,07,59,6.20
2020,04,13,08,00,6.30
2020,04,13,08,01,6.30
2020,04,13,08,02,6.40
2020,04,13,08,03,6.40
2020,04,13,08,04,6.50
2020,04,13,08,05,6.60
2020,04,13,08,06,6.60
2020,04,13,08,07,6.70
2020,04,13,08,08,6.70
2020,04,13,08,09,6.80
2020,04,13,08,10,6.80
2020,04,13,08,11,6.90
2020,04,13,08,12,7.00
2020,04,13,08,13,7.10
2020,04,13,08,14,7.10
2020,04,13,08,15,7.20
2020,04,13,08,16,7.20
2020,04,13,08,17,7.30
2020,04,13,08,18,7.30
2020,04,13,08,19,7.40
2020,04,13,08,20,7.40
2020,04,13,08,21,7.40
2020,04,13,08,22,7.50
2020,04,13,08,23,7.50
2020,04,13,08,24,7.60
2020,04,13,08,25,7.60
2020,04,13,08,26,7.70
2020,04,13,08,27,7.70
2020,04,13,08,28,7.80
2020,04,13,08,29,7.80
2020,04,13,08,30,7.90
2020,04,13,08,31,8.00
2020,04,13,08,32,8.00
2020,04,13,08,33,8.10
2020,04,13,08,34,8.20
2020,04,13,08,35,8.20
2020,04,13,08,36,8.20
2020,04,13,08,37,8.30
2020,04,13,08,38,8.30
2020,04,13,08,39,8.30
2020,04,13,08,40,8.40
2020,04,13,08,41,8.40
2020,04,13,08,42,8.50
2020,04,13,08,43,8.50
2020,04,13,08,44,8.60
2020,04,13,08,45,8.60
2020,04,13,08,46,8.60
2020,04,13,08,47,8.70
2020,04,13,08,48,8.70
2020,04,13,08,49,8.80
2020,04,13,08,50,8.80
2020,04,13,08,51,8.80
2020,04,13,08,52,8.90
2020,04,13,08,53,8.90
2020,04,13,08,54,8.90
2020,04,13,08,55,9.00
2020,04,13,08,56,9.00
2020,04,13,08,57,9.10
2020,04,13,08,58,9.10
2020,04,13,08,59,9.20
2020,04,13,09,00,9.20
2020,04,13,09,01,9.20
2020,04,13,09,02,9.30
2020,04,13,09,03,9.30
2020,04,13,09,04,9.30
2020,04,13,09,05,9.30
2020,04,13,09,06,9.40
2020,04,13,09,07,9.40
2020,04,13,09,08,9.40
2020,04,13,09,09,9.40
2020,04,13,09,10,9.40
2020,04,13,09,11,9.50
2020,04,13,09,12,9.50
2020,04,13,09,13,9.50
2020,04,13,09,14,9.50
2020,04,13,09,15,9.50
2020,04,13,09,16,9.50
2020,04,13,09,17,9.50
2020,04,13,09,18,9.60
2020,04,13,09,19,9.60
2020,04,13,09,20,9.50
2020,04,13,09,21,9.50
2020,04,13,09,22,9.50
2020,04,13,09,23,9.50
2020,04,13,09,24,9.50
2020,04,13,09,25,9.50
2020,04,13,09,26,9.50
2020,04,13,09,27,9.50
2020,04,13,09,28,9.60
2020,04,13,09,29,9.60
2020,04,13,09,30,9.60
2020,04,13,09,31,9.70
2020,04,13,09,32,9.70
2020,04,13,09,33,9.70
2020,04,13,09,34,9.70
2020,04,13,09,35,9.80
2020,04,13,09,36,9.80
2020,04,13,09,37,9.80
2020,04,13,09,38,9.80
2020,04,13,09,39,9.90
2020,04,13,09,40,9.90
2020,04,13,09,41,9.90
2020,04,13,09,42,10.00
2020,04,13,09,43,10.00
2020,04,13,09,44,10.10
2020,04,13,09,45,10.10
2020,04,13,09,46,10.10
2020,04,13,09,47,10.10
2020,04,13,09,48,10.20
2020,04,13,09,49,10.20
2020,04,13,09,50,10.20
2020,04,13,09,51,10.30
2020,04,13,09,52,10.30
2020,04,13,09,53,10.30
2020,04,13,09,54,10.40
2020,04,13,09,55,10.40
2020,04,13,09,56,10.50
2020,04,13,09,57,10.50
2020,04,13,09,58,10.60
2020,04,13,09,59,10.60
2020,04,13,10,00,10.60
2020,04,13,10,01,10.70
2020,04,13,10,02,10.70
2020,04,13,10,03,10.70
2020,04,13,10,04,10.80
2020,04,13,10,05,10.80
2020,04,13,10,06,10.70
2020,04,13,10,07,10.70
2020,04,13,10,08,10.70
2020,04,13,10,09,10.70
2020,04,13,10,10,10.80
2020,04,13,10,11,10.80
2020,04,13,10,12,10.80
2020,04,13,10,13,10.80
2020,04,13,10,14,10.80
2020,04,13,10,15,10.80
2020,04,13,10,16,10.80
2020,04,13,10,17,10.90
2020,04,13,10,18,10.90
2020,04,13,10,19,10.90
2020,04,13,10,20,10.90
2020,04,13,10,21,11.00
2020,04,13,10,22,11.00
2020,04,13,10,23,11.00
2020,04,13,10,24,11.10
2020,04,13,10,25,11.10
2020,04,13,10,26,11.10
2020,04,13,10,27,11.10
2020,04,13,10,28,11.10
2020,04,13,10,29,11.10
2020,04,13,10,30,11.10
2020,04,13,10,31,11.00
2020,04,13,10,32,11.00
2020,04,13,10,33,11.00
2020,04,13,10,34,10.90
2020,04,13,10,35,10.90
2020,04,13,10,36,10.90
2020,04,13,10,37,10.90
2020,04,13,10,38,10.90
2020,04,13,10,39,11.00
2020,04,13,10,40,11.00
2020,04,13,10,41,11.10
2020,04,13,10,42,11.20
2020,04,13,10,43,11.30
2020,04,13,10,44,11.30
2020,04,13,10,45,11.30
2020,04,13,10,46,11.30
2020,04,13,10,47,11.30
2020,04,13,10,48,11.30
2020,04,13,10,49,11.30
2020,04,13,10,50,11.30
2020,04,13,10,51,11.30
2020,04,13,10,52,11.30
2020,04,13,10,53,11.30
2020,04,13,10,54,11.30
2020,04,13,10,55,11.30
2020,04,13,10,56,11.30
2020,04,13,10,57,11.30
2020,04,13,10,58,11.30
2020,04,13,10,59,11.40
2020,04,13,11,00,11.40
2020,04,13,11,01,11.40
2020,04,13,11,02,11.50
2020,04,13,11,03,11.60
2020,04,13,11,04,11.60
2020,04,13,11,05,11.60
2020,04,13,11,06,11.70
2020,04,13,11,07,11.70
2020,04,13,11,08,11.70
2020,04,13,11,09,11.80
2020,04,13,11,10,11.80
2020,04,13,11,11,11.80
2020,04,13,11,12,11.90
2020,04,13,11,13,11.90
2020,04,13,11,14,11.90
2020,04,13,11,15,11.80
2020,04,13,11,16,11.80
2020,04,13,11,17,11.80
2020,04,13,11,18,11.80
2020,04,13,11,19,11.80
2020,04,13,11,20,11.80
2020,04,13,11,21,11.90
2020,04,13,11,22,11.90
2020,04,13,11,23,12.00
2020,04,13,11,24,12.10
2020,04,13,11,25,12.10
2020,04,13,11,26,12.10
2020,04,13,11,27,12.20
2020,04,13,11,28,12.20
2020,04,13,11,29,12.20
2020,04,13,11,30,12.20
2020,04,13,11,31,12.20
2020,04,13,11,32,12.10
2020,04,13,11,33,12.10
2020,04,13,11,34,12.10
2020,04,13,11,35,12.10
2020,04,13,11,36,12.10
2020,04,13,11,37,12.10
2020,04,13,11,38,12.10
2020,04,13,11,39,12.10
2020,04,13,11,40,12.20
2020,04,13,11,41,12.20
2020,04,13,11,42,12.30
2020,04,13,11,43,12.30
2020,04,13,11,44,12.40
2020,04,13,11,45,12.50
2020,04,13,11,46,12.50
2020,04,13,11,47,12.50
2020,04,13,11,48,12.40
2020,04,13,11,49,12.40
2020,04,13,11,50,12.30
2020,04,13,11,51,12.30
2020,04,13,11,52,12.30
2020,04,13,11,53,12.20
2020,04,13,11,54,12.20
2020,04,13,11,55,12.30
2020,04,13,11,56,12.40
2020,04,13,11,57,12.40
2020,04,13,11,58,12.50
2020,04,13,11,59,12.60
2020,04,13,12,00,12.80
2020,04,13,12,01,12.90
2020,04,13,12,02,13.00
2020,04,13,12,03,13.10
2020,04,13,12,04,13.20
2020,04,13,12,05,13.30
2020,04,13,12,06,13.40
2020,04,13,12,07,13.60
2020,04,13,12,08,13.60
2020,04,13,12,09,13.80
2020,04,13,12,10,13.80
2020,04,13,12,11,13.80
2020,04,13,12,12,13.90
2020,04,13,12,13,13.90
2020,04,13,12,14,13.90
2020,04,13,12,15,13.80
2020,04,13,12,16,13.80
2020,04,13,12,17,13.70
2020,04,13,12,18,13.60
2020,04,13,12,19,13.60
2020,04,13,12,20,13.60
2020,04,13,12,21,13.50
2020,04,13,12,22,13.50
2020,04,13,12,23,13.40
2020,04,13,12,24,13.30
2020,04,13,12,25,13.30
2020,04,13,12,26,13.30
2020,04,13,12,27,13.30
2020,04,13,12,28,13.30
2020,04,13,12,29,13.30
2020,04,13,12,30,13.40
2020,04,13,12,31,13.40
2020,04,13,12,32,13.40
2020,04,13,12,33,13.40
2020,04,13,12,34,13.40
2020,04,13,12,35,13.40
2020,04,13,12,36,13.40
2020,04,13,12,37,13.50
2020,04,13,12,38,13.40
2020,04,13,12,39,13.40
2020,04,13,12,40,13.30
2020,04,13,12,41,13.20
2020,04,13,12,42,13.10
2020,04,13,12,43,13.20
2020,04,13,12,44,13.20
2020,04,13,12,45,13.20
2020,04,13,12,46,13.20
2020,04,13,12,47,13.30
2020,04,13,12,48,13.30
2020,04,13,12,49,13.40
2020,04,13,12,50,13.40
2020,04,13,12,51,13.50
2020,04,13,12,52,13.60
2020,04,13,12,53,13.70
2020,04,13,12,54,13.80
2020,04,13,12,55,13.80
2020,04,13,12,56,13.90
2020,04,13,12,57,14.00
2020,04,13,12,58,14.10
2020,04,13,12,59,14.10
2020,04,13,13,00,14.20
2020,04,13,13,01,14.30
2020,04,13,13,02,14.40
2020,04,13,13,03,14.40
2020,04,13,13,04,14.40
2020,04,13,13,05,14.40
2020,04,13,13,06,14.50
2020,04,13,13,07,14.50
2020,04,13,13,08,14.60
2020,04,13,13,09,14.60
2020,04,13,13,10,14.70
2020,04,13,13,11,14.70
2020,04,13,13,12,14.80
2020,04,13,13,13,14.80
2020,04,13,13,14,14.90
2020,04,13,13,15,15.00
2020,04,13,13,16,15.10
2020,04,13,13,17,15.20
2020,04,13,13,18,15.30
2020,04,13,13,19,15.30
2020,04,13,13,20,15.40
2020,04,13,13,21,15.40
2020,04,13,13,22,15.40
2020,04,13,13,23,15.50
2020,04,13,13,24,15.50
2020,04,13,13,25,15.50
2020,04,13,13,26,15.50
2020,04,13,13,27,15.40
2020,04,13,13,28,15.40
2020,04,13,13,29,15.40
2020,04,13,13,30,15.40
2020,04,13,13,31,15.40
2020,04,13,13,32,15.40
2020,04,13,13,33,15.40
2020,04,13,13,34,15.40
2020,04,13,13,35,15.40
2020,04,13,13,36,15.50
2020,04,13,13,37,15.60
2020,04,13,13,38,15.60
2020,04,13,13,39,15.70
2020,04,13,13,40,15.80
2020,04,13,13,41,15.90
2020,04,13,13,42,15.90
2020,04,13,13,43,16.00
2020,04,13,13,44,16.10
2020,04,13,13,45,16.10
2020,04,13,13,46,16.20
2020,04,13,13,47,16.20
2020,04,13,13,48,16.20
2020,04,13,13,49,16.10
2020,04,13,13,50,16.10
2020,04,13,13,51,16.10
2020,04,13,13,52,16.10
2020,04,13,13,53,16.10
2020,04,13,13,54,16.10
2020,04,13,13,55,16.20
2020,04,13,13,56,16.20
2020,04,13,13,57,16.30
2020,04,13,13,58,16.30
2020,04,13,13,59,16.30
2020,04,13,14,00,16.30
2020,04,13,14,01,16.30
2020,04,13,14,02,16.30
2020,04,13,14,03,16.30
2020,04,13,14,04,16.30
2020,04,13,14,05,16.30
2020,04,13,14,06,16.30
2020,04,13,14,07,16.30
2020,04,13,14,08,16.30
2020,04,13,14,09,16.30
2020,04,13,14,10,16.30
2020,04,13,14,11,16.30
2020,04,13,14,12,16.30
2020,04,13,14,13,16.30
2020,04,13,14,14,16.30
2020,04,13,14,15,16.30
2020,04,13,14,16,16.30
2020,04,13,14,17,16.40
2020,04,13,14,18,16.40
2020,04,13,14,19,16.40
2020,04,13,14,20,16.50
2020,04,13,14,21,16.50
2020,04,13,14,22,16.60
2020,04,13,14,23,16.60
2020,04,13,14,24,16.70
2020,04,13,14,25,16.70
2020,04,13,14,26,16.80
2020,04,13,14,27,16.80
2020,04,13,14,28,16.80
2020,04,13,14,29,16.80
2020,04,13,14,30,16.80
2020,04,13,14,31,16.80
2020,04,13,14,32,16.90
2020,04,13,14,33,16.90
2020,04,13,14,34,16.90
2020,04,13,14,35,16.90
2020,04,13,14,36,16.90
2020,04,13,14,37,17.00
2020,04,13,14,38,17.00
2020,04,13,14,39,17.00
2020,04,13,14,40,17.00
2020,04,13,14,41,16.90
2020,04,13,14,42,16.90
2020,04,13,14,43,16.90
2020,04,13,14,44,16.90
2020,04,13,14,45,16.90
2020,04,13,14,46,17.00
2020,04,13,14,47,16.90
2020,04,13,14,48,16.90
2020,04,13,14,49,16.90
2020,04,13,14,50,16.90
2020,04,13,14,51,16.90
2020,04,13,14,52,16.90
2020,04,13,14,53,16.90
2020,04,13,14,54,16.80
2020,04,13,14,55,16.80
2020,04,13,14,56,16.80
2020,04,13,14,57,16.80
2020,04,13,14,58,16.80
2020,04,13,14,59,16.80
2020,04,13,15,00,16.90
2020,04,13,15,01,16.90
2020,04,13,15,02,17.00
2020,04,13,15,03,17.10
2020,04,13,15,04,17.10
2020,04,13,15,05,17.20
2020,04,13,15,06,17.20
2020,04,13,15,07,17.20
2020,04,13,15,08,17.20
2020,04,13,15,09,17.20
2020,04,13,15,10,17.30
2020,04,13,15,11,17.30
2020,04,13,15,12,17.40
2020,04,13,15,13,17.40
2020,04,13,15,14,17.50
2020,04,13,15,15,17.50
2020,04,13,15,16,17.60
2020,04,13,15,17,17.60
2020,04,13,15,18,17.60
2020,04,13,15,19,17.70
2020,04,13,15,20,17.70
2020,04,13,15,21,17.70
2020,04,13,15,22,17.70
2020,04,13,15,23,17.70
2020,04,13,15,24,17.80
2020,04,13,15,25,17.80
2020,04,13,15,26,17.80
2020,04,13,15,27,17.80
2020,04,13,15,28,17.90
2020,04,13,15,29,17.90
2020,04,13,15,30,17.90
2020,04,13,15,31,17.90
2020,04,13,15,32,17.90
2020,04,13,15,33,17.90
2020,04,13,15,34,17.90
2020,04,13,15,35,17.90
2020,04,13,15,36,17.90
2020,04,13,15,37,18.00
2020,04,13,15,38,17.90
2020,04,13,15,39,17.90
2020,04,13,15,40,17.90
2020,04,13,15,41,17.90
2020,04,13,15,42,18.00
2020,04,13,15,43,18.00
2020,04,13,15,44,18.10
2020,04,13,15,45,18.10
2020,04,13,15,46,18.20
2020,04,13,15,47,18.20
2020,04,13,15,48,18.20
2020,04,13,15,49,18.20
2020,04,13,15,50,18.20
2020,04,13,15,51,18.20
2020,04,13,15,52,18.20
2020,04,13,15,53,18.20
2020,04,13,15,54,18.10
2020,04,13,15,55,18.10
2020,04,13,15,56,18.00
2020,04,13,15,57,17.90
2020,04,13,15,58,17.90
2020,04,13,15,59,17.80
2020,04,13,16,00,17.70
2020,04,13,16,01,17.70
2020,04,13,16,02,17.70
2020,04,13,16,03,17.60
2020,04,13,16,04,17.60
2020,04,13,16,05,17.60
2020,04,13,16,06,17.70
2020,04,13,16,07,17.70
2020,04,13,16,08,17.60
2020,04,13,16,09,17.60
2020,04,13,16,10,17.60
2020,04,13,16,11,17.60
2020,04,13,16,12,17.60
2020,04,13,16,13,17.50
2020,04,13,16,14,17.50
2020,04,13,16,15,17.50
2020,04,13,16,16,17.50
2020,04,13,16,17,17.50
2020,04,13,16,18,17.50
2020,04,13,16,19,17.60
2020,04,13,16,20,17.60
2020,04,13,16,21,17.60
2020,04,13,16,22,17.60
2020,04,13,16,23,17.60
2020,04,13,16,24,17.60
2020,04,13,16,25,17.60
2020,04,13,16,26,17.60
2020,04,13,16,27,17.70
2020,04,13,16,28,17.70
2020,04,13,16,29,17.70
2020,04,13,16,30,17.70
2020,04,13,16,31,17.70
2020,04,13,16,32,17.70
2020,04,13,16,33,17.70
2020,04,13,16,34,17.70
2020,04,13,16,35,17.60
2020,04,13,16,36,17.60
2020,04,13,16,37,17.60
2020,04,13,16,38,17.60
2020,04,13,16,39,17.60
2020,04,13,16,40,17.60
2020,04,13,16,41,17.70
2020,04,13,16,42,17.70
2020,04,13,16,43,17.60
2020,04,13,16,44,17.60
2020,04,13,16,45,17.60
2020,04,13,16,46,17.60
2020,04,13,16,47,17.60
2020,04,13,16,48,17.70
2020,04,13,16,49,17.70
2020,04,13,16,50,17.70
2020,04,13,16,51,17.70
2020,04,13,16,52,17.70
2020,04,13,16,53,17.70
2020,04,13,16,54,17.70
2020,04,13,16,55,17.70
2020,04,13,16,56,17.70
2020,04,13,16,57,17.70
2020,04,13,16,58,17.70
2020,04,13,16,59,17.70
2020,04,13,17,00,17.70
2020,04,13,17,01,17.70
2020,04,13,17,02,17.60
2020,04,13,17,03,17.60
2020,04,13,17,04,17.60
2020,04,13,17,05,17.60
2020,04,13,17,06,17.50
2020,04,13,17,07,17.40
2020,04,13,17,08,17.20
2020,04,13,17,09,17.00
2020,04,13,17,10,16.90
2020,04,13,17,11,16.80
2020,04,13,17,12,16.80
2020,04,13,17,13,16.70
2020,04,13,17,14,16.70
2020,04,13,17,15,16.70
2020,04,13,17,16,16.70
2020,04,13,17,17,16.60
2020,04,13,17,18,16.60
2020,04,13,17,19,16.60
2020,04,13,17,20,16.60
2020,04,13,17,21,16.60
2020,04,13,17,22,16.60
2020,04,13,17,23,16.60
2020,04,13,17,24,16.50
2020,04,13,17,25,16.50
2020,04,13,17,26,16.50
2020,04,13,17,27,16.40
2020,04,13,17,28,16.40
2020,04,13,17,29,16.30
2020,04,13,17,30,16.30
2020,04,13,17,31,16.20
2020,04,13,17,32,16.20
2020,04,13,17,33,16.10
2020,04,13,17,34,16.00
2020,04,13,17,35,16.00
2020,04,13,17,36,15.90
2020,04,13,17,37,15.90
2020,04,13,17,38,15.90
2020,04,13,17,39,15.90
2020,04,13,17,40,15.80
2020,04,13,17,41,15.80
2020,04,13,17,42,15.80
2020,04,13,17,43,15.80
2020,04,13,17,44,15.70